Ft Lauderdale, FL

3:25 AM EDT on April 27, 2017 (GMT -0400)
Fort Lauderdale-Hollywood International

Weather History for KFLL - August, 2012

Change the Weather History Date:

Sunday, August 5, 2012

  Actual Average Record
Temperature  
Mean Temperature 86 °F 85 °F  
Max Temperature 91 °F 91 °F 97 °F (1958)
Min Temperature 81 °F 79 °F 67 °F (1958)
Degree Days  
Heating Degree Days 0 0  
Month to date heating degree days 0 0  
Since 1 June heating degree days 0 0  
Since 1 July heating degree days 0 0  
Cooling Degree Days 21 20  
Month to date cooling degree days 99 100  
Year to date cooling degree days 2698 2659  
Since 1 June cooling degree days 1193 1241  
Growing Degree Days 36 (Base 50)    
Moisture  
Dew Point 76 °F    
Average Humidity 75    
Maximum Humidity 85    
Minimum Humidity 64    
Precipitation  
Precipitation 0.02 in 0.22 in 1.20 in (1957)
Month to date precipitation 1.56 1.07  
Year to date precipitation 34.63 34.70  
Snow  
Snow 0.00 in - - ()
Month to date snowfall 0.0  
Since 1 June snowfall 0.0  
Since 1 July snowfall 0.0  
Snow Depth 0.00 in    
Sea Level Pressure  
Sea Level Pressure 30.05 in    
Wind  
Wind Speed 12 mph (ESE)    
Max Wind Speed 18 mph    
Max Gust Speed 23 mph    
Visibility 10 miles    
Events      
T = Trace of Precipitation, MM = Missing Value Source: NWS Daily Summary

Daily Weather History Graph

Daily Weather History Graph

Search for Another Location

Airport or City:

Trip Planner

Search our weather history database for the weather conditions in past years. The results will help you decide how hot, cold, wet, or windy it might be!

Date:

Astronomy

Aug. 05, 2012 Rise Set
Actual Time 6:48 AM EDT 8:04 PM EDT
Civil Twilight 6:24 AM EDT 8:28 PM EDT
Nautical Twilight 5:54 AM EDT 8:57 PM EDT
Astronomical Twilight 5:24 AM EDT 9:27 PM EDT
Moon 10:14 PM EDT (8/5) 10:06 AM EDT (8/5)
Length of Visible Light 14h 04m
Length of Day
13h 15m
Waning Gibbous, 86% of the Moon is Illuminated
Aug 5
Waning Gibbous
Aug 9
Last Quarter
Aug 17
New
Aug 24
First Quarter
Aug 31
Full

Hourly Weather History & Observations

Time (EDT) Temp. Heat Index Dew Point Humidity Pressure Visibility Wind Dir Wind Speed Gust Speed Precip Events Conditions
12:53 AM 82.0 °F 87.9 °F 73.9 °F 76% 30.06 in 10.0 mi SE 5.8 mph - N/A   Partly Cloudy
1:53 AM 82.0 °F 88.6 °F 75.0 °F 79% 30.06 in 10.0 mi ESE 6.9 mph - N/A   Scattered Clouds
2:53 AM 82.0 °F 88.6 °F 75.0 °F 79% 30.04 in 10.0 mi SE 6.9 mph - N/A   Scattered Clouds
3:53 AM 82.9 °F 90.8 °F 75.9 °F 79% 30.03 in 10.0 mi SE 10.4 mph - N/A   Scattered Clouds
4:53 AM 82.0 °F 88.6 °F 75.0 °F 79% 30.02 in 10.0 mi ESE 12.7 mph - N/A   Partly Cloudy
5:53 AM 82.0 °F 88.6 °F 75.0 °F 79% 30.02 in 10.0 mi SE 15.0 mph 18.4 mph N/A   Partly Cloudy
6:53 AM 82.0 °F 86.7 °F 72.0 °F 71% 30.04 in 10.0 mi SE 9.2 mph - N/A   Scattered Clouds
7:53 AM 84.0 °F 92.6 °F 75.9 °F 76% 30.06 in 10.0 mi ESE 11.5 mph - N/A   Partly Cloudy
8:53 AM 84.9 °F 94.1 °F 75.9 °F 74% 30.07 in 10.0 mi SSE 12.7 mph - N/A   Mostly Cloudy
9:53 AM 87.1 °F 98.8 °F 77.0 °F 72% 30.07 in 10.0 mi ESE 11.5 mph - N/A   Scattered Clouds
10:53 AM 87.1 °F 97.3 °F 75.9 °F 69% 30.08 in 10.0 mi SE 12.7 mph - N/A   Scattered Clouds
11:53 AM 88.0 °F 98.5 °F 75.9 °F 67% 30.09 in 10.0 mi ESE 11.5 mph - N/A   Scattered Clouds
12:53 PM 90.0 °F 102.5 °F 77.0 °F 65% 30.07 in 10.0 mi ESE 12.7 mph - N/A   Scattered Clouds
1:53 PM 90.0 °F 101.3 °F 75.9 °F 63% 30.07 in 10.0 mi ESE 12.7 mph - N/A   Scattered Clouds
2:53 PM 90.0 °F 101.3 °F 75.9 °F 63% 30.06 in 10.0 mi SE 12.7 mph 17.3 mph N/A   Scattered Clouds
3:48 PM 89.6 °F 99.8 °F 75.2 °F 62% 30.04 in 10.0 mi East 12.7 mph - N/A   Mostly Cloudy
3:53 PM 89.1 °F 100.2 °F 75.9 °F 65% 30.04 in 10.0 mi East 13.8 mph 20.7 mph N/A   Mostly Cloudy
4:43 PM 89.6 °F 99.8 °F 75.2 °F 62% 30.03 in 10.0 mi ESE 13.8 mph 19.6 mph N/A   Scattered Clouds
4:53 PM 89.1 °F 99.1 °F 75.0 °F 63% 30.03 in 10.0 mi East 13.8 mph - N/A   Scattered Clouds
5:53 PM 88.0 °F 97.5 °F 75.0 °F 65% 30.02 in 10.0 mi ESE 12.7 mph - N/A   Partly Cloudy
6:53 PM 87.1 °F 97.3 °F 75.9 °F 69% 30.03 in 10.0 mi East 11.5 mph - N/A   Scattered Clouds
7:53 PM 86.0 °F 96.0 °F 75.9 °F 72% 30.04 in 10.0 mi ESE 13.8 mph - N/A   Scattered Clouds
8:53 PM 84.9 °F 94.1 °F 75.9 °F 74% 30.04 in 10.0 mi ESE 10.4 mph - N/A   Partly Cloudy
9:53 PM 84.9 °F 94.1 °F 75.9 °F 74% 30.06 in 10.0 mi ESE 13.8 mph - N/A   Scattered Clouds
10:53 PM 84.2 °F 92.3 °F 75.2 °F 74% 30.07 in 10.0 mi ESE 10.4 mph - N/A   Scattered Clouds
11:53 PM 82.9 °F 91.8 °F 77.0 °F 82% 30.06 in 10.0 mi SE 11.5 mph - 0.02 in   Partly Cloudy